Previsão horária em Plocice

Hoje, 2 Março, Terça-feira

Tempo Temperatura Precipitação Vento Pressão Humidade
00:00 0°C° 0 mm 4 m/s 760 mmHg 91%
01:00 0°C° 0 mm 4 m/s 760 mmHg 91%
02:00 0°C° 0 mm 4 m/s 760 mmHg 92%
03:00 0°C° 0 mm 4 m/s 760 mmHg 92%
04:00 0°C° 0 mm 4 m/s 759 mmHg 92%
05:00 0°C° 0 mm 4 m/s 759 mmHg 92%
06:00 0°C° 0 mm 4 m/s 759 mmHg 92%
07:00 -1°C° 0 mm 4 m/s 759 mmHg 92%
08:00 +1°C° 0 mm 4 m/s 760 mmHg 85%
09:00 +2°C° 0 mm 5 m/s 760 mmHg 79%
10:00 +5°C° 0 mm 5 m/s 760 mmHg 72%
11:00 +5°C° 0 mm 5 m/s 760 mmHg 68%
12:00 +6°C° 0 mm 5 m/s 760 mmHg 65%
13:00 +7°C° 0 mm 5 m/s 760 mmHg 61%
14:00 +7°C° 0 mm 4 m/s 760 mmHg 63%
15:00 +6°C° 0 mm 4 m/s 760 mmHg 65%
16:00 +7°C° 0 mm 3 m/s 760 mmHg 68%
17:00 +5°C° 0 mm 3 m/s 760 mmHg 75%
18:00 +4°C° 0 mm 2 m/s 760 mmHg 82%
19:00 +3°C° 0 mm 2 m/s 760 mmHg 89%
20:00 +3°C° 0 mm 1 m/s 760 mmHg 90%
21:00 +3°C° 0 mm 1 m/s 760 mmHg 92%
22:00 +1°C° 0 mm 0 m/s 760 mmHg 93%
23:00 +2°C° 0 mm 1 m/s 760 mmHg 93%

Amanhã, 3 Março, Quarta-feira

Tempo Temperatura Precipitação Vento Pressão Humidade
00:00 +2°C° 0 mm 1 m/s 760 mmHg 92%
01:00 +2°C° 0 mm 1 m/s 761 mmHg 92%
02:00 +2°C° 0 mm 1 m/s 760 mmHg 91%
03:00 +2°C° 0 mm 1 m/s 759 mmHg 91%
04:00 +1°C° 0 mm 1 m/s 759 mmHg 91%
05:00 -1°C° 0 mm 2 m/s 759 mmHg 89%
06:00 -1°C° 0 mm 2 m/s 758 mmHg 87%
07:00 -1°C° 0 mm 2 m/s 758 mmHg 84%
08:00 +2°C° 0 mm 2 m/s 758 mmHg 76%
09:00 +4°C° 0 mm 2 m/s 758 mmHg 68%
10:00 +5°C° 0 mm 2 m/s 757 mmHg 60%
11:00 +7°C° 0 mm 2 m/s 757 mmHg 58%
12:00 +8°C° 0 mm 2 m/s 756 mmHg 55%
13:00 +9°C° 0 mm 3 m/s 756 mmHg 53%
14:00 +9°C° 0 mm 3 m/s 755 mmHg 55%
15:00 +9°C° 0 mm 3 m/s 754 mmHg 58%
16:00 +9°C° 0 mm 3 m/s 753 mmHg 60%
17:00 +7°C° 0 mm 3 m/s 753 mmHg 68%
18:00 +5°C° 0 mm 3 m/s 752 mmHg 76%
19:00 +4°C° 0 mm 3 m/s 752 mmHg 84%
20:00 +4°C° 0 mm 3 m/s 751 mmHg 86%
21:00 +3°C° 0 mm 3 m/s 750 mmHg 88%
22:00 +3°C° 0 mm 3 m/s 749 mmHg 91%
23:00 +3°C° 0 mm 4 m/s 749 mmHg 91%

Depois de amanhã, 4 Março, Quinta-feira

Tempo Temperatura Precipitação Vento Pressão Humidade
00:00 +1°C° 0 mm 4 m/s 749 mmHg 92%
01:00 +1°C° 0 mm 4 m/s 748 mmHg 93%
02:00 +1°C° 0 mm 4 m/s 748 mmHg 93%
03:00 +1°C° 0 mm 4 m/s 747 mmHg 94%
04:00 +3°C° 0 mm 4 m/s 747 mmHg 94%
05:00 +1°C° 0 mm 4 m/s 746 mmHg 92%
06:00 +1°C° 0 mm 5 m/s 746 mmHg 89%
07:00 +1°C° 0 mm 5 m/s 746 mmHg 87%
08:00 +1°C° 0 mm 4 m/s 746 mmHg 86%
09:00 +1°C° 0 mm 4 m/s 746 mmHg 86%
10:00 0°C° 0 mm 4 m/s 746 mmHg 85%
11:00 +1°C° 0 mm 4 m/s 746 mmHg 83%
12:00 +2°C° 0 mm 3 m/s 746 mmHg 81%
13:00 +2°C° 0 mm 3 m/s 746 mmHg 79%
14:00 +1°C° 0.1 mm 3 m/s 746 mmHg 83%
15:00 +1°C° 0.1 mm 3 m/s 746 mmHg 87%
16:00 0°C° 0.1 mm 3 m/s 745 mmHg 91%
17:00 -1°C° 0.3 mm 4 m/s 746 mmHg 92%
18:00 -2°C° 0.3 mm 4 m/s 746 mmHg 92%
19:00 -2°C° 0.3 mm 4 m/s 746 mmHg 92%
20:00 -3°C° 0.1 mm 4 m/s 746 mmHg 88%
21:00 -2°C° 0.1 mm 3 m/s 747 mmHg 84%
22:00 -2°C° 0.1 mm 3 m/s 747 mmHg 81%
23:00 -2°C° 0 mm 3 m/s 747 mmHg 80%

5 Março, Sexta-feira

Tempo Temperatura Precipitação Vento Pressão Humidade
00:00 -2°C° 0 mm 3 m/s 747 mmHg 80%
01:00 -4°C° 0 mm 3 m/s 747 mmHg 80%
02:00 -4°C° 0 mm 3 m/s 748 mmHg 80%
03:00 -4°C° 0 mm 3 m/s 748 mmHg 79%
04:00 -4°C° 0 mm 3 m/s 748 mmHg 79%
05:00 -3°C° 0 mm 2 m/s 748 mmHg 77%
06:00 -3°C° 0 mm 2 m/s 749 mmHg 76%
07:00 -2°C° 0 mm 2 m/s 749 mmHg 74%
08:00 -1°C° 0.1 mm 2 m/s 749 mmHg 67%
09:00 0°C° 0.1 mm 3 m/s 750 mmHg 60%
10:00 0°C° 0.1 mm 4 m/s 750 mmHg 52%
11:00 0°C° 0.1 mm 4 m/s 750 mmHg 51%
12:00 0°C° 0.1 mm 5 m/s 751 mmHg 49%
13:00 0°C° 0.1 mm 5 m/s 751 mmHg 47%
14:00 0°C° 0.1 mm 5 m/s 751 mmHg 51%
15:00 -1°C° 0.1 mm 5 m/s 751 mmHg 54%
16:00 -1°C° 0.1 mm 5 m/s 752 mmHg 58%
17:00 -2°C° 0.1 mm 5 m/s 752 mmHg 63%
18:00 -3°C° 0.1 mm 4 m/s 753 mmHg 68%
19:00 -4°C° 0.1 mm 4 m/s 753 mmHg 73%
20:00 -4°C° 0 mm 3 m/s 754 mmHg 71%
21:00 -4°C° 0 mm 3 m/s 754 mmHg 69%
22:00 -3°C° 0 mm 2 m/s 755 mmHg 67%
23:00 -3°C° 0 mm 2 m/s 755 mmHg 66%

6 Março, Sábado

Tempo Temperatura Precipitação Vento Pressão Humidade
00:00 -3°C° 0 mm 2 m/s 756 mmHg 65%
01:00 -3°C° 0 mm 2 m/s 756 mmHg 64%
02:00 -3°C° 0 mm 2 m/s 756 mmHg 64%
03:00 -3°C° 0 mm 2 m/s 756 mmHg 65%
04:00 -3°C° 0 mm 2 m/s 756 mmHg 65%
05:00 -3°C° 0 mm 2 m/s 757 mmHg 65%
06:00 -3°C° 0 mm 2 m/s 757 mmHg 65%
07:00 -3°C° 0 mm 2 m/s 757 mmHg 65%
08:00 -2°C° 0 mm 3 m/s 757 mmHg 59%
09:00 -1°C° 0 mm 3 m/s 758 mmHg 53%
10:00 -1°C° 0 mm 4 m/s 758 mmHg 47%
11:00 0°C° 0 mm 4 m/s 758 mmHg 44%
12:00 0°C° 0 mm 4 m/s 758 mmHg 42%
13:00 +1°C° 0 mm 4 m/s 758 mmHg 39%
14:00 +1°C° 0 mm 5 m/s 757 mmHg 43%
15:00 0°C° 0 mm 5 m/s 757 mmHg 46%
16:00 0°C° 0 mm 5 m/s 756 mmHg 50%
17:00 -1°C° 0 mm 5 m/s 756 mmHg 57%
18:00 -1°C° 0 mm 5 m/s 756 mmHg 65%
19:00 -2°C° 0 mm 5 m/s 755 mmHg 72%
20:00 -2°C° 0 mm 5 m/s 755 mmHg 78%
21:00 -1°C° 0 mm 5 m/s 755 mmHg 84%
22:00 -1°C° 0 mm 6 m/s 755 mmHg 90%
23:00 -1°C° 0 mm 6 m/s 755 mmHg 89%

7 Março, Domingo

Tempo Temperatura Precipitação Vento Pressão Humidade
00:00 -2°C° 0 mm 6 m/s 754 mmHg 88%
01:00 -2°C° 0 mm 6 m/s 754 mmHg 86%
02:00 -2°C° 0 mm 6 m/s 754 mmHg 87%
03:00 -2°C° 0 mm 7 m/s 753 mmHg 88%
04:00 -2°C° 0 mm 7 m/s 753 mmHg 89%
05:00 -2°C° 0 mm 7 m/s 753 mmHg 88%
06:00 -2°C° 0 mm 7 m/s 753 mmHg 86%
07:00 -2°C° 0 mm 7 m/s 752 mmHg 84%
08:00 -2°C° 0 mm 7 m/s 752 mmHg 82%
09:00 -1°C° 0 mm 8 m/s 752 mmHg 79%
10:00 -1°C° 0 mm 8 m/s 752 mmHg 76%
11:00 -1°C° 0 mm 8 m/s 751 mmHg 79%
12:00 -1°C° 0 mm 7 m/s 751 mmHg 81%
13:00 -1°C° 0 mm 7 m/s 750 mmHg 84%
14:00 -1°C° 0.1 mm 7 m/s 750 mmHg 87%
15:00 -1°C° 0.1 mm 8 m/s 749 mmHg 90%
16:00 -1°C° 0.1 mm 8 m/s 748 mmHg 94%
17:00 0°C° 0.3 mm 8 m/s 748 mmHg 93%
18:00 0°C° 0.3 mm 7 m/s 747 mmHg 93%
19:00 0°C° 0.3 mm 7 m/s 747 mmHg 93%
20:00 0°C° 0.2 mm 7 m/s 747 mmHg 94%
21:00 0°C° 0.2 mm 7 m/s 746 mmHg 95%
22:00 +1°C° 0.2 mm 6 m/s 746 mmHg 96%
23:00 +1°C° 0.6 mm 6 m/s 746 mmHg 96%
Mostrar mais

Necessitamos do seu Consentimento

A Meteoprog e os seus Fornecedores de Serviços podem armazenar e aceder a dados pessoais como cookies, identificadores do dispositivo ou outras tecnologias semelhantes existentes no seu dispositivo e processar estes dados para personalizar conteúdos e anúncios, assim como funcionalidades nas redes sociais e análise de tráfego.

  • Armazenar e/ou aceder a informações no seu dispositivo

    Os cookies, identificadores do dispositivo ou outras informações podem ser armazenados ou acedidos no seu dispositivo, para os fins acima indicados.

  • Anúncios e conteúdos personalizados, medição de anúncios e conteúdos, dados sobre o público-alvo e desenvolvimento de produtos

    Os anúncios e os conteúdos podem ser personalizados com base num perfil. Podem ser adicionados dados adicionais para uma maior personalização dos anúncios e dos conteúdos. A eficácia dos anúncios e dos conteúdos pode ser medida. Podem ser obtidas informações sobre o público que visualizou os anúncios e os conteúdos. Estes dados podem ser usados para desenvolver ou melhorar sistemas, softwares ou a experiência do utilizador.

Ao clicar em "Eu concordo”, permitirá o uso de cookies, identificadores do dispositivo e web beacons mencionados ou outras tecnologias semelhantes. As configurações do navegador do seu dispositivo podem ser alteradas.

Para certos fins, podem ser invocados interesses legítimos ao invés de consentimento. Pode ler mais informação sobre este assunto na nossa Política de Privacidade e Cookies.